| time (UTC) | temp F | wind direction | speed knots | gust knots | rain 1hr in | rain 24hr in | rain mn in | humidity % | barometer mb |
| 20260510104428 | 44 | 304 | 0.0 | 2.6 | 0.00 | 0.40 | 0.02 | 91 | 1008.1 |
| 20260510103931 | 44 | 12 | 0.0 | 2.6 | 0.00 | 0.40 | 0.02 | 91 | 1008.0 |
| 20260510103427 | 44 | 12 | 0.0 | 2.6 | 0.00 | 0.40 | 0.02 | 91 | 1007.7 |
| 20260510102929 | 45 | 338 | 0.0 | 2.6 | 0.00 | 0.40 | 0.02 | 91 | 1007.7 |
| 20260510102657 | 45 | 327 | 0.0 | 2.6 | 0.00 | 0.40 | 0.02 | 92 | 1007.7 |
| 20260510101926 | 45 | 355 | 0.0 | 0.9 | 0.00 | 0.40 | 0.02 | 91 | 1007.7 |
| 20260510101427 | 45 | 355 | 0.0 | 2.6 | 0.00 | 0.40 | 0.02 | 92 | 1007.6 |
| 20260510100926 | 45 | 355 | 0.0 | 2.6 | 0.00 | 0.40 | 0.02 | 92 | 1007.6 |
| 20260510100427 | 45 | 355 | 0.0 | 1.7 | 0.00 | 0.40 | 0.02 | 92 | 1007.5 |
| 20260510095925 | 45 | 339 | 0.0 | 2.6 | 0.00 | 0.40 | 0.02 | 92 | 1007.5 |
| 20260510095426 | 45 | 355 | 0.0 | 2.6 | 0.00 | 0.40 | 0.02 | 92 | 1007.4 |
| 20260510094925 | 46 | 33 | 0.0 | 1.7 | 0.00 | 0.40 | 0.02 | 92 | 1007.4 |
| 20260510094425 | 46 | 33 | 0.9 | 1.7 | 0.00 | 0.40 | 0.02 | 92 | 1007.3 |
| 20260510093926 | 46 | 330 | 0.0 | 1.7 | 0.00 | 0.40 | 0.02 | 92 | 1007.2 |
| 20260510093425 | 46 | 339 | 0.0 | 0.9 | 0.00 | 0.40 | 0.02 | 92 | 1007.1 |
| 20260510093157 | 46 | 302 | 0.0 | 0.9 | 0.00 | 0.40 | 0.02 | 92 | 1007.0 |
| 20260510092655 | 46 | 302 | 0.0 | 0.9 | 0.00 | 0.40 | 0.02 | 92 | 1007.0 |
| 20260510091921 | 46 | 302 | 0.0 | 0.9 | 0.00 | 0.40 | 0.02 | 92 | 1006.9 |
| 20260510091422 | 46 | 302 | 0.0 | 0.9 | 0.00 | 0.40 | 0.02 | 92 | 1006.8 |
| 20260510090921 | 46 | 302 | 0.0 | 0.9 | 0.00 | 0.40 | 0.02 | 92 | 1006.8 |
| 20260510090422 | 46 | 302 | 0.0 | 0.9 | 0.00 | 0.40 | 0.02 | 92 | 1006.7 |
| 20260510085922 | 46 | 323 | 0.0 | 0.0 | 0.00 | 0.40 | 0.02 | 92 | 1006.6 |
| 20260510085422 | 46 | 323 | 0.0 | 0.0 | 0.00 | 0.40 | 0.02 | 92 | 1006.3 |
| 20260510084922 | 46 | 323 | 0.0 | 1.7 | 0.00 | 0.40 | 0.02 | 92 | 1006.3 |
| 20260510084422 | 46 | 323 | 0.0 | 1.7 | 0.00 | 0.40 | 0.02 | 92 | 1006.2 |
| 20260510083918 | 46 | 72 | 0.0 | 0.9 | 0.00 | 0.40 | 0.02 | 92 | 1006.1 |
| 20260510083418 | 46 | 72 | 0.0 | 0.9 | 0.00 | 0.40 | 0.02 | 92 | 1006.1 |
| 20260510082917 | 46 | 72 | 0.0 | 1.7 | 0.00 | 0.40 | 0.02 | 92 | 1006.1 |
| 20260510082417 | 46 | 72 | 0.0 | 1.7 | 0.00 | 0.40 | 0.02 | 92 | 1006.1 |
| 20260510081920 | 46 | 72 | 0.0 | 0.0 | 0.00 | 0.40 | 0.02 | 92 | 1005.8 |
| 20260510081420 | 46 | 72 | 0.0 | 0.0 | 0.00 | 0.40 | 0.02 | 92 | 1005.7 |
| 20260510080917 | 46 | 72 | 0.0 | 0.0 | 0.00 | 0.40 | 0.02 | 92 | 1005.5 |
| 20260510080648 | 46 | 72 | 0.0 | 0.0 | 0.00 | 0.40 | 0.02 | 92 | 1005.5 |
| 20260510075918 | 46 | 72 | 0.0 | 0.0 | 0.00 | 0.40 | 0.02 | 92 | 1005.4 |
| 20260510075643 | 47 | 72 | 0.0 | 0.0 | 0.00 | 0.40 | 0.02 | 92 | 1005.4 |
| 20260510074906 | 47 | 72 | 0.0 | 0.0 | 0.00 | 0.40 | 0.02 | 91 | 1005.3 |
| 20260510074401 | 47 | 72 | 0.0 | 0.0 | 0.00 | 0.40 | 0.02 | 91 | 1005.3 |
| 20260510074127 | 47 | 72 | 0.0 | 0.0 | 0.00 | 0.40 | 0.02 | 91 | 1005.2 |
| 20260510073348 | 47 | 72 | 0.0 | 0.0 | 0.00 | 0.40 | 0.02 | 91 | 1005.2 |
| 20260510072843 | 48 | 72 | 0.0 | 0.0 | 0.00 | 0.40 | 0.02 | 92 | 1005.0 |
| 20260510072337 | 48 | 72 | 0.0 | 0.9 | 0.00 | 0.40 | 0.02 | 92 | 1005.0 |
| 20260510071832 | 48 | 72 | 0.0 | 0.9 | 0.00 | 0.40 | 0.02 | 92 | 1005.0 |
| 20260510071556 | 48 | 72 | 0.0 | 0.0 | 0.00 | 0.40 | 0.02 | 92 | 1004.9 |
| 20260510071055 | 48 | 72 | 0.0 | 0.0 | 0.00 | 0.40 | 0.02 | 92 | 1004.8 |
| 20260510070322 | 48 | 72 | 0.0 | 0.0 | 0.00 | 0.40 | 0.02 | 92 | 1005.0 |
| 20260510065817 | 48 | 72 | 0.0 | 0.0 | 0.00 | 0.40 | 0.02 | 91 | 1004.9 |
| 20260510065547 | 48 | 72 | 0.0 | 0.0 | 0.00 | 0.40 | 0.02 | 91 | 1004.8 |
| 20260510065046 | 48 | 72 | 0.0 | 0.9 | 0.00 | 0.40 | 0.02 | 91 | 1004.8 |
| 20260510064545 | 48 | 72 | 0.0 | 0.9 | 0.00 | 0.40 | 0.02 | 91 | 1004.7 |
| 20260510063813 | 49 | 72 | 0.0 | 0.9 | 0.00 | 0.40 | 0.02 | 91 | 1004.7 |
| 20260510063546 | 49 | 72 | 0.0 | 0.9 | 0.00 | 0.40 | 0.02 | 91 | 1004.7 |
| 20260510063317 | 49 | 72 | 0.0 | 0.9 | 0.00 | 0.40 | 0.02 | 91 | 1004.6 |
| 20260510062541 | 49 | 72 | 0.0 | 0.9 | 0.01 | 0.40 | 0.02 | 90 | 1004.7 |
| 20260510061807 | 49 | 72 | 0.0 | 0.9 | 0.02 | 0.40 | 0.02 | 90 | 1004.7 |
| 20260510061536 | 49 | 72 | 0.0 | 0.9 | 0.02 | 0.40 | 0.02 | 90 | 1004.7 |
| 20260510061036 | 49 | 72 | 0.0 | 0.9 | 0.02 | 0.40 | 0.02 | 90 | 1004.6 |
| 20260510060532 | 49 | 72 | 0.0 | 1.7 | 0.02 | 0.40 | 0.02 | 89 | 1004.6 |
| 20260510060306 | 50 | 15 | 0.0 | 2.6 | 0.02 | 0.40 | 0.02 | 89 | 1004.6 |
| 20260510055306 | 51 | 325 | 0.0 | 3.5 | 0.02 | 0.40 | 0.02 | 88 | 1004.5 |
| 20260510055259 | 50 | 0 | 0.0 | 3.5 | 0.02 | 0.40 | 0.02 | 88 | 1004.6 |
| 20260510054254 | 51 | 40 | 0.9 | 4.3 | 0.02 | 0.41 | 0.02 | 87 | 1004.4 |
| 20260510054024 | 52 | 70 | 1.7 | 5.2 | 0.02 | 0.41 | 0.02 | 87 | 1004.0 |
| 20260510053251 | 52 | 324 | 1.7 | 8.7 | 0.02 | 0.41 | 0.02 | 87 | 1003.7 |
| 20260510052752 | 53 | 333 | 2.6 | 9.6 | 0.02 | 0.41 | 0.02 | 87 | 1003.7 |
| 20260510052246 | 54 | 355 | 2.6 | 9.6 | 0.01 | 0.40 | 0.01 | 86 | 1003.7 |
| 20260510051740 | 55 | 46 | 1.7 | 7.0 | 0.00 | 0.39 | 0.00 | 86 | 1004.1 |
| 20260510051234 | 55 | 321 | 2.6 | 9.6 | 0.00 | 0.39 | 0.00 | 86 | 1004.5 |
| 20260510050728 | 55 | 325 | 3.5 | 10.4 | 0.00 | 0.39 | 0.00 | 87 | 1004.1 |
| 20260510050222 | 56 | 346 | 2.6 | 10.4 | 0.00 | 0.39 | 0.00 | 90 | 1003.8 |
| 20260510045715 | 55 | 341 | 1.7 | 5.2 | 0.00 | 0.39 | 0.00 | 90 | 1003.5 |
| 20260510045442 | 55 | 355 | 1.7 | 5.2 | 0.00 | 0.39 | 0.00 | 91 | 1003.2 |
| 20260510044704 | 54 | 327 | 0.9 | 5.2 | 0.00 | 0.39 | 0.00 | 92 | 1003.0 |
| 20260510044659 | 54 | 331 | 0.9 | 1.7 | 0.00 | 0.39 | 0.00 | 91 | 1003.0 |
| 20260510043651 | 54 | 331 | 0.9 | 1.7 | 0.00 | 0.39 | 0.00 | 91 | 1002.8 |
| 20260510043145 | 54 | 182 | 0.0 | 0.0 | 0.00 | 0.39 | 0.00 | 90 | 1002.2 |
| 20260510042640 | 54 | 182 | 0.0 | 0.0 | 0.00 | 0.40 | 0.00 | 90 | 1002.1 |
| 20260510042134 | 55 | 182 | 0.0 | 0.0 | 0.00 | 0.40 | 0.00 | 89 | 1002.0 |
| 20260510041628 | 55 | 182 | 0.0 | 1.7 | 0.00 | 0.40 | 0.00 | 89 | 1001.9 |
| 20260510041122 | 55 | 211 | 0.0 | 2.6 | 0.00 | 0.42 | 0.00 | 89 | 1001.9 |
| 20260510040615 | 55 | 197 | 0.0 | 2.6 | 0.00 | 0.42 | 0.00 | 89 | 1001.9 |
| 20260510040116 | 55 | 163 | 0.9 | 4.3 | 0.00 | 0.43 | 0.42 | 90 | 1001.9 |
| 20260510040109 | 55 | 190 | 0.0 | 4.3 | 0.00 | 0.42 | 0.00 | 90 | 1001.9 |
| 20260510035058 | 55 | 142 | 0.9 | 4.3 | 0.00 | 0.43 | 0.42 | 91 | 1002.0 |
| 20260510034822 | 55 | 155 | 0.9 | 3.5 | 0.00 | 0.43 | 0.42 | 92 | 1001.9 |
| 20260510034317 | 54 | 248 | 0.9 | 5.2 | 0.00 | 0.43 | 0.42 | 93 | 1002.0 |
| 20260510033539 | 54 | 142 | 0.9 | 5.2 | 0.00 | 0.43 | 0.42 | 93 | 1002.1 |
| 20260510033305 | 54 | 165 | 0.0 | 4.3 | 0.00 | 0.43 | 0.42 | 93 | 1002.1 |
| 20260510032527 | 54 | 160 | 0.0 | 0.9 | 0.00 | 0.43 | 0.42 | 93 | 1002.0 |
| 20260510032022 | 54 | 160 | 0.0 | 0.9 | 0.00 | 0.43 | 0.42 | 93 | 1001.9 |
| 20260510031516 | 54 | 160 | 0.0 | 0.0 | 0.00 | 0.43 | 0.42 | 92 | 1001.9 |
| 20260510031242 | 54 | 160 | 0.0 | 0.9 | 0.00 | 0.43 | 0.42 | 92 | 1001.8 |
| 20260510030737 | 54 | 160 | 0.0 | 2.6 | 0.00 | 0.43 | 0.42 | 92 | 1001.8 |
| 20260510025958 | 54 | 160 | 0.0 | 2.6 | 0.00 | 0.43 | 0.42 | 93 | 1001.8 |
| 20260510025451 | 54 | 176 | 0.0 | 2.6 | 0.00 | 0.43 | 0.42 | 93 | 1001.9 |
| 20260510024946 | 54 | 146 | 0.9 | 6.1 | 0.00 | 0.43 | 0.42 | 93 | 1002.1 |
| 20260510024710 | 54 | 153 | 0.9 | 6.1 | 0.00 | 0.43 | 0.42 | 94 | 1002.2 |
| 20260510023933 | 54 | 126 | 0.0 | 1.7 | 0.00 | 0.43 | 0.42 | 94 | 1002.4 |
| 20260510023428 | 54 | 155 | 0.0 | 1.7 | 0.00 | 0.43 | 0.42 | 94 | 1002.1 |
| 20260510023423 | 54 | 155 | 0.0 | 2.6 | 0.00 | 0.43 | 0.42 | 93 | 1001.7 |
| 20260510022416 | 54 | 200 | 0.0 | 2.6 | 0.00 | 0.43 | 0.42 | 93 | 1001.6 |
| 20260510022142 | 54 | 167 | 0.0 | 0.9 | 0.00 | 0.43 | 0.42 | 93 | 1001.6 |
| 20260510021403 | 54 | 167 | 0.0 | 0.9 | 0.00 | 0.43 | 0.42 | 93 | 1001.6 |
| 20260510020858 | 53 | 153 | 0.0 | 0.9 | 0.00 | 0.43 | 0.42 | 93 | 1001.8 |
| 20260510020623 | 53 | 153 | 0.0 | 1.7 | 0.00 | 0.43 | 0.42 | 93 | 1001.6 |
| 20260510015845 | 53 | 147 | 0.0 | 1.7 | 0.00 | 0.43 | 0.42 | 92 | 1001.7 |
| 20260510015339 | 54 | 115 | 0.0 | 0.9 | 0.00 | 0.43 | 0.42 | 92 | 1001.7 |
| 20260510015106 | 54 | 115 | 0.0 | 0.9 | 0.00 | 0.43 | 0.42 | 92 | 1001.6 |
| 20260510014328 | 54 | 115 | 0.0 | 1.7 | 0.00 | 0.43 | 0.42 | 92 | 1001.7 |
| 20260510013821 | 54 | 115 | 0.0 | 1.7 | 0.00 | 0.43 | 0.42 | 92 | 1001.7 |
| 20260510013317 | 54 | 180 | 0.0 | 2.6 | 0.00 | 0.43 | 0.42 | 92 | 1001.6 |
| 20260510012809 | 54 | 180 | 0.0 | 2.6 | 0.00 | 0.43 | 0.42 | 92 | 1001.5 |
| 20260510012306 | 54 | 153 | 0.0 | 2.6 | 0.00 | 0.43 | 0.42 | 92 | 1001.4 |
| 20260510011757 | 54 | 215 | 0.0 | 2.6 | 0.00 | 0.43 | 0.42 | 92 | 1001.3 |
| 20260510011252 | 55 | 142 | 0.9 | 3.5 | 0.00 | 0.43 | 0.42 | 92 | 1001.2 |
| 20260510010746 | 55 | 265 | 0.9 | 4.3 | 0.00 | 0.43 | 0.42 | 92 | 1001.2 |
| 20260510010239 | 55 | 226 | 0.9 | 4.3 | 0.00 | 0.43 | 0.42 | 92 | 1001.1 |
| 20260510005734 | 55 | 154 | 0.0 | 2.6 | 0.00 | 0.44 | 0.42 | 92 | 1001.1 |
| 20260510005228 | 55 | 159 | 0.9 | 2.6 | 0.00 | 0.44 | 0.42 | 92 | 1001.2 |
| 20260510004722 | 55 | 165 | 0.9 | 3.5 | 0.00 | 0.44 | 0.42 | 92 | 1001.2 |
| 20260510004450 | 55 | 168 | 0.9 | 3.5 | 0.00 | 0.44 | 0.42 | 92 | 1001.2 |
| 20260510003717 | 55 | 305 | 0.9 | 4.3 | 0.00 | 0.44 | 0.42 | 92 | 1001.2 |
| 20260510003218 | 55 | 285 | 0.9 | 4.3 | 0.00 | 0.44 | 0.42 | 92 | 1001.2 |
| 20260510002948 | 55 | 198 | 1.7 | 4.3 | 0.00 | 0.45 | 0.42 | 92 | 1001.2 |
| 20260510002217 | 55 | 157 | 1.7 | 9.6 | 0.00 | 0.45 | 0.42 | 92 | 1001.1 |
| 20260510001717 | 56 | 175 | 1.7 | 9.6 | 0.00 | 0.46 | 0.42 | 92 | 1001.1 |
| 20260510001218 | 56 | 159 | 0.9 | 2.6 | 0.00 | 0.47 | 0.42 | 93 | 1001.1 |
| 20260510000948 | 56 | 158 | 0.9 | 4.3 | 0.01 | 0.47 | 0.42 | 93 | 1001.1 |
| 20260510000214 | 56 | 184 | 0.9 | 4.3 | 0.03 | 0.48 | 0.42 | 93 | 1001.0 |
| 20260509235716 | 56 | 142 | 1.7 | 5.2 | 0.04 | 0.48 | 0.42 | 93 | 1001.1 |
| 20260509235214 | 55 | 255 | 1.7 | 6.1 | 0.13 | 0.48 | 0.42 | 92 | 1001.1 |
| 20260509234716 | 55 | 225 | 1.7 | 6.1 | 0.20 | 0.49 | 0.42 | 93 | 1001.0 |
| 20260509234215 | 55 | 211 | 2.6 | 7.8 | 0.36 | 0.49 | 0.42 | 93 | 1001.0 |
| 20260509233714 | 55 | 163 | 1.7 | 7.8 | 0.38 | 0.50 | 0.42 | 93 | 1000.9 |
| 20260509233215 | 55 | 315 | 1.7 | 7.0 | 0.38 | 0.51 | 0.42 | 92 | 1000.9 |
| 20260509232713 | 55 | 190 | 1.7 | 6.1 | 0.38 | 0.52 | 0.42 | 92 | 1001.0 |
| 20260509232444 | 55 | 239 | 1.7 | 6.1 | 0.38 | 0.52 | 0.42 | 92 | 1001.0 |
| 20260509231708 | 55 | 252 | 1.7 | 6.1 | 0.38 | 0.53 | 0.42 | 92 | 1000.8 |
| 20260509231206 | 55 | 164 | 1.7 | 6.1 | 0.38 | 0.54 | 0.42 | 91 | 1000.8 |
| 20260509230938 | 55 | 315 | 3.5 | 15.6 | 0.37 | 0.53 | 0.41 | 90 | 1000.9 |
| 20260509230208 | 55 | 27 | 4.3 | 15.6 | 0.35 | 0.52 | 0.39 | 89 | 1001.3 |
| 20260509225708 | 55 | 333 | 4.3 | 11.3 | 0.34 | 0.52 | 0.38 | 86 | 1001.4 |
| 20260509225209 | 57 | 323 | 4.3 | 9.6 | 0.25 | 0.43 | 0.31 | 82 | 1001.6 |
| 20260509224940 | 59 | 334 | 5.2 | 13.0 | 0.18 | 0.36 | 0.22 | 75 | 1001.5 |
| 20260509224207 | 62 | 5 | 6.1 | 19.1 | 0.02 | 0.20 | 0.06 | 67 | 1001.3 |
| 20260509223706 | 66 | 311 | 3.5 | 19.1 | 0.00 | 0.18 | 0.04 | 59 | 1001.0 |
| 20260509223206 | 67 | 296 | 2.6 | 7.8 | 0.00 | 0.18 | 0.04 | 55 | 999.2 |
| 20260509222936 | 67 | 192 | 2.6 | 7.0 | 0.00 | 0.19 | 0.04 | 54 | 998.7 |
| 20260509222205 | 67 | 151 | 2.6 | 7.8 | 0.00 | 0.19 | 0.04 | 54 | 998.8 |
| 20260509221705 | 68 | 188 | 3.5 | 9.6 | 0.00 | 0.19 | 0.04 | 53 | 998.7 |
| 20260509221206 | 68 | 160 | 2.6 | 9.6 | 0.00 | 0.19 | 0.04 | 54 | 998.6 |
| 20260509220701 | 68 | 198 | 2.6 | 8.7 | 0.00 | 0.19 | 0.04 | 53 | 998.4 |
| 20260509220202 | 68 | 182 | 3.5 | 9.6 | 0.00 | 0.19 | 0.04 | 54 | 998.5 |
| 20260509215704 | 68 | 262 | 3.5 | 9.6 | 0.00 | 0.19 | 0.04 | 54 | 998.5 |
| 20260509215201 | 68 | 215 | 3.5 | 10.4 | 0.00 | 0.19 | 0.04 | 56 | 998.5 |
| 20260509214700 | 69 | 167 | 3.5 | 12.2 | 0.00 | 0.19 | 0.04 | 56 | 998.4 |
| 20260509214200 | 69 | 24 | 3.5 | 12.2 | 0.00 | 0.19 | 0.04 | 55 | 998.2 |
| 20260509213701 | 69 | 151 | 4.3 | 12.2 | 0.00 | 0.19 | 0.04 | 54 | 998.2 |
| 20260509213200 | 70 | 202 | 3.5 | 12.2 | 0.00 | 0.19 | 0.04 | 52 | 998.1 |
| 20260509212701 | 70 | 99 | 3.5 | 12.2 | 0.00 | 0.19 | 0.04 | 52 | 998.1 |
| 20260509212157 | 70 | 168 | 3.5 | 10.4 | 0.00 | 0.19 | 0.04 | 52 | 998.0 |
| 20260509211656 | 70 | 163 | 4.3 | 10.4 | 0.00 | 0.19 | 0.04 | 52 | 998.2 |
| 20260509211427 | 70 | 182 | 4.3 | 11.3 | 0.00 | 0.19 | 0.04 | 54 | 998.2 |
| 20260509210929 | 70 | 147 | 4.3 | 14.8 | 0.00 | 0.19 | 0.04 | 54 | 998.4 |
| 20260509210157 | 70 | 211 | 4.3 | 14.8 | 0.00 | 0.19 | 0.04 | 52 | 998.6 |
| 20260509205927 | 70 | 173 | 4.3 | 10.4 | 0.00 | 0.19 | 0.04 | 54 | 998.5 |
| 20260509205428 | 70 | 329 | 4.3 | 10.4 | 0.00 | 0.19 | 0.04 | 55 | 998.6 |
| 20260509204658 | 70 | 169 | 3.5 | 9.6 | 0.00 | 0.19 | 0.04 | 56 | 998.6 |
| 20260509204158 | 70 | 188 | 4.3 | 10.4 | 0.00 | 0.19 | 0.04 | 55 | 998.7 |
| 20260509203653 | 69 | 240 | 4.3 | 11.3 | 0.00 | 0.19 | 0.04 | 54 | 998.7 |
| 20260509203152 | 70 | 173 | 4.3 | 13.9 | 0.00 | 0.19 | 0.04 | 53 | 999.0 |
| 20260509202652 | 70 | 215 | 3.5 | 13.9 | 0.00 | 0.19 | 0.04 | 52 | 999.0 |
| 20260509202154 | 70 | 153 | 2.6 | 8.7 | 0.00 | 0.19 | 0.04 | 53 | 999.1 |
| 20260509201652 | 70 | 226 | 3.5 | 9.6 | 0.00 | 0.19 | 0.04 | 53 | 999.1 |
| 20260509201154 | 70 | 78 | 3.5 | 9.6 | 0.00 | 0.19 | 0.04 | 54 | 999.3 |
| 20260509200923 | 70 | 213 | 2.6 | 7.8 | 0.00 | 0.19 | 0.04 | 54 | 999.3 |
| 20260509200153 | 70 | 176 | 3.5 | 10.4 | 0.00 | 0.19 | 0.04 | 56 | 999.3 |
| 20260509195926 | 69 | 269 | 3.5 | 10.4 | 0.00 | 0.19 | 0.04 | 56 | 999.3 |
| 20260509195150 | 69 | 180 | 3.5 | 13.0 | 0.00 | 0.19 | 0.04 | 56 | 999.5 |
| 20260509194650 | 69 | 178 | 2.6 | 13.0 | 0.00 | 0.19 | 0.04 | 57 | 999.5 |
| 20260509194147 | 69 | 194 | 3.5 | 8.7 | 0.00 | 0.19 | 0.04 | 59 | 999.6 |
| 20260509193648 | 69 | 44 | 3.5 | 12.2 | 0.00 | 0.19 | 0.04 | 57 | 999.7 |
| 20260509193145 | 69 | 182 | 3.5 | 12.2 | 0.00 | 0.19 | 0.04 | 57 | 999.8 |
| 20260509192646 | 68 | 107 | 3.5 | 7.8 | 0.00 | 0.19 | 0.04 | 58 | 999.9 |
| 20260509192146 | 68 | 57 | 3.5 | 9.6 | 0.00 | 0.19 | 0.04 | 57 | 1000.0 |
| 20260509191642 | 68 | 173 | 3.5 | 9.6 | 0.00 | 0.19 | 0.04 | 57 | 1000.1 |
| 20260509191413 | 68 | 59 | 3.5 | 7.8 | 0.00 | 0.19 | 0.04 | 59 | 1000.2 |
| 20260509190643 | 68 | 53 | 3.5 | 7.8 | 0.00 | 0.19 | 0.04 | 58 | 1000.2 |
| 20260509190142 | 68 | 114 | 2.6 | 14.8 | 0.00 | 0.19 | 0.04 | 58 | 1000.4 |
| 20260509185915 | 67 | 185 | 2.6 | 14.8 | 0.00 | 0.19 | 0.04 | 58 | 1000.3 |
| 20260509185143 | 67 | 207 | 2.6 | 8.7 | 0.00 | 0.19 | 0.04 | 60 | 1000.3 |
| 20260509184644 | 67 | 161 | 3.5 | 10.4 | 0.00 | 0.19 | 0.04 | 57 | 1000.5 |
| 20260509184144 | 67 | 120 | 3.5 | 10.4 | 0.00 | 0.19 | 0.04 | 57 | 1000.5 |
| 20260509183908 | 68 | 233 | 2.6 | 11.3 | 0.00 | 0.19 | 0.04 | 58 | 1000.5 |
| 20260509183132 | 68 | 180 | 3.5 | 11.3 | 0.00 | 0.19 | 0.04 | 57 | 1000.5 |
| 20260509182858 | 68 | 142 | 4.3 | 10.4 | 0.00 | 0.19 | 0.04 | 59 | 1000.5 |
| 20260509182126 | 68 | 157 | 3.5 | 9.6 | 0.00 | 0.19 | 0.04 | 58 | 1000.4 |
| 20260509181628 | 68 | 183 | 2.6 | 7.8 | 0.00 | 0.19 | 0.04 | 60 | 1000.4 |
| 20260509181357 | 67 | 215 | 2.6 | 10.4 | 0.00 | 0.19 | 0.04 | 59 | 1000.3 |
| 20260509180624 | 67 | 147 | 3.5 | 10.4 | 0.00 | 0.19 | 0.04 | 59 | 1000.3 |
| 20260509180353 | 67 | 251 | 3.5 | 10.4 | 0.00 | 0.19 | 0.04 | 60 | 1000.4 |
| 20260509180245 | 67 | 302 | 3.5 | 13.0 | 0.00 | 0.19 | 0.04 | 61 | 1000.5 |
| 20260509175124 | 66 | 128 | 3.5 | 13.0 | 0.00 | 0.19 | 0.04 | 62 | 1000.6 |
| 20260509174856 | 67 | 259 | 2.6 | 9.6 | 0.00 | 0.19 | 0.04 | 61 | 1000.8 |
| 20260509174121 | 67 | 218 | 2.6 | 7.8 | 0.00 | 0.19 | 0.04 | 62 | 1000.6 |
| 20260509173622 | 67 | 232 | 2.6 | 8.7 | 0.00 | 0.19 | 0.04 | 62 | 1000.7 |
| 20260509173122 | 66 | 271 | 2.6 | 8.7 | 0.00 | 0.19 | 0.04 | 63 | 1000.7 |
| 20260509172620 | 66 | 175 | 2.6 | 8.7 | 0.00 | 0.19 | 0.04 | 63 | 1000.6 |
| 20260509172121 | 65 | 168 | 2.6 | 8.7 | 0.00 | 0.19 | 0.04 | 66 | 1000.6 |
| 20260509171852 | 65 | 193 | 2.6 | 7.8 | 0.00 | 0.19 | 0.04 | 66 | 1000.5 |
| 20260509171349 | 65 | 179 | 2.6 | 8.7 | 0.00 | 0.19 | 0.04 | 65 | 1000.6 |
| 20260509170620 | 65 | 128 | 2.6 | 7.8 | 0.00 | 0.19 | 0.04 | 67 | 1000.7 |
| 20260509170112 | 64 | 175 | 2.6 | 8.7 | 0.00 | 0.19 | 0.04 | 69 | 1000.7 |
| 20260509165607 | 64 | 250 | 2.6 | 8.7 | 0.00 | 0.19 | 0.04 | 69 | 1000.8 |
| 20260509165332 | 63 | 163 | 2.6 | 7.0 | 0.00 | 0.19 | 0.04 | 71 | 1000.9 |
| 20260509165327 | 63 | 355 | 1.7 | 7.0 | 0.00 | 0.19 | 0.04 | 74 | 1000.9 |
| 20260509164048 | 62 | 250 | 1.7 | 5.2 | 0.00 | 0.19 | 0.04 | 73 | 1000.8 |
| 20260509163542 | 62 | 33 | 2.6 | 7.8 | 0.00 | 0.19 | 0.04 | 72 | 1000.7 |
| 20260509163036 | 62 | 139 | 2.6 | 7.8 | 0.00 | 0.19 | 0.04 | 73 | 1000.8 |
| 20260509162531 | 62 | 150 | 2.6 | 7.0 | 0.00 | 0.19 | 0.04 | 73 | 1001.0 |
| 20260509162024 | 61 | 177 | 1.7 | 7.0 | 0.00 | 0.19 | 0.04 | 74 | 1001.0 |
| 20260509161519 | 61 | 308 | 1.7 | 7.0 | 0.00 | 0.19 | 0.04 | 74 | 1001.2 |
| 20260509161013 | 60 | 240 | 1.7 | 6.1 | 0.00 | 0.19 | 0.04 | 75 | 1001.3 |
| 20260509160508 | 60 | 297 | 1.7 | 4.3 | 0.00 | 0.19 | 0.04 | 76 | 1001.5 |
| 20260509160235 | 60 | 293 | 1.7 | 5.2 | 0.00 | 0.19 | 0.04 | 77 | 1001.6 |
| 20260509155456 | 60 | 180 | 1.7 | 7.0 | 0.00 | 0.19 | 0.04 | 77 | 1001.6 |
| 20260509155220 | 60 | 202 | 1.7 | 7.0 | 0.00 | 0.19 | 0.04 | 76 | 1001.6 |
| 20260509154442 | 60 | 161 | 1.7 | 9.6 | 0.00 | 0.19 | 0.04 | 76 | 1001.6 |
| 20260509153937 | 60 | 11 | 2.6 | 9.6 | 0.00 | 0.19 | 0.04 | 78 | 1001.5 |
| 20260509153430 | 60 | 184 | 3.5 | 9.6 | 0.00 | 0.19 | 0.04 | 77 | 1001.5 |
| 20260509152925 | 60 | 315 | 2.6 | 9.6 | 0.00 | 0.19 | 0.04 | 77 | 1001.6 |
| 20260509152420 | 59 | 217 | 1.7 | 7.8 | 0.00 | 0.19 | 0.04 | 79 | 1001.5 |
| 20260509151913 | 59 | 198 | 0.9 | 6.1 | 0.00 | 0.19 | 0.04 | 81 | 1001.5 |
| 20260509151407 | 58 | 151 | 1.7 | 7.8 | 0.00 | 0.19 | 0.04 | 82 | 1001.5 |
| 20260509151131 | 58 | 246 | 1.7 | 7.8 | 0.00 | 0.19 | 0.04 | 82 | 1001.4 |
| 20260509150356 | 58 | 207 | 1.7 | 7.0 | 0.00 | 0.19 | 0.04 | 83 | 1001.4 |
| 20260509150120 | 58 | 168 | 2.6 | 10.4 | 0.00 | 0.19 | 0.04 | 84 | 1001.5 |
| 20260509145346 | 58 | 115 | 2.6 | 10.4 | 0.00 | 0.19 | 0.04 | 84 | 1001.6 |
| 20260509145109 | 58 | 219 | 2.6 | 9.6 | 0.00 | 0.19 | 0.04 | 85 | 1001.5 |
| 20260509144332 | 58 | 98 | 2.6 | 7.0 | 0.00 | 0.19 | 0.04 | 89 | 1001.5 |
| 20260509144327 | 57 | 168 | 1.7 | 7.0 | 0.00 | 0.19 | 0.04 | 90 | 1001.4 |
| 20260509143318 | 57 | 235 | 1.7 | 6.1 | 0.00 | 0.19 | 0.04 | 91 | 1001.4 |
| 20260509142812 | 56 | 194 | 1.7 | 6.1 | 0.00 | 0.19 | 0.04 | 92 | 1001.4 |
| 20260509142307 | 56 | 150 | 0.9 | 6.1 | 0.00 | 0.19 | 0.04 | 93 | 1001.4 |
| 20260509141800 | 56 | 249 | 1.7 | 6.1 | 0.00 | 0.19 | 0.04 | 93 | 1001.5 |
| 20260509141254 | 55 | 202 | 1.7 | 7.0 | 0.00 | 0.19 | 0.04 | 93 | 1001.4 |
| 20260509140748 | 55 | 306 | 1.7 | 7.0 | 0.00 | 0.19 | 0.04 | 94 | 1001.5 |
| 20260509140243 | 55 | 213 | 1.7 | 5.2 | 0.00 | 0.19 | 0.04 | 95 | 1001.5 |
| 20260509135737 | 55 | 225 | 1.7 | 7.0 | 0.00 | 0.19 | 0.04 | 95 | 1001.5 |
| 20260509135230 | 55 | 182 | 1.7 | 7.0 | 0.00 | 0.19 | 0.04 | 95 | 1001.5 |
| 20260509134724 | 55 | 163 | 0.9 | 4.3 | 0.00 | 0.19 | 0.04 | 95 | 1001.5 |
| 20260509134218 | 55 | 174 | 1.7 | 5.2 | 0.00 | 0.19 | 0.04 | 96 | 1001.5 |
| 20260509133713 | 54 | 207 | 1.7 | 5.2 | 0.00 | 0.19 | 0.04 | 96 | 1001.6 |
| 20260509133206 | 54 | 202 | 1.7 | 3.5 | 0.00 | 0.19 | 0.04 | 96 | 1001.6 |
| 20260509132700 | 54 | 224 | 0.9 | 5.2 | 0.00 | 0.19 | 0.04 | 96 | 1001.6 |
| 20260509132154 | 54 | 210 | 0.9 | 5.2 | 0.00 | 0.19 | 0.04 | 96 | 1001.5 |
| 20260509131649 | 54 | 146 | 0.9 | 5.2 | 0.00 | 0.19 | 0.04 | 96 | 1001.5 |
| 20260509131413 | 53 | 80 | 0.9 | 5.2 | 0.00 | 0.19 | 0.04 | 96 | 1001.6 |
| 20260509130638 | 53 | 200 | 0.9 | 4.3 | 0.00 | 0.19 | 0.04 | 96 | 1001.6 |
| 20260509130130 | 53 | 254 | 0.9 | 4.3 | 0.00 | 0.19 | 0.04 | 96 | 1001.6 |
| 20260509125625 | 53 | 199 | 0.9 | 4.3 | 0.00 | 0.19 | 0.04 | 96 | 1001.6 |
| 20260509125118 | 53 | 182 | 1.7 | 4.3 | 0.00 | 0.19 | 0.04 | 96 | 1001.7 |
| 20260509124614 | 53 | 221 | 0.9 | 4.3 | 0.00 | 0.19 | 0.04 | 96 | 1001.6 |
| 20260509124107 | 53 | 180 | 0.9 | 3.5 | 0.00 | 0.19 | 0.04 | 96 | 1001.6 |
| 20260509124102 | 53 | 184 | 0.9 | 4.3 | 0.00 | 0.19 | 0.04 | 97 | 1001.7 |
| 20260509123327 | 53 | 300 | 0.9 | 4.3 | 0.00 | 0.19 | 0.04 | 96 | 1001.8 |
| 20260509122548 | 53 | 189 | 0.9 | 4.3 | 0.00 | 0.19 | 0.04 | 96 | 1001.8 |
| 20260509122315 | 53 | 225 | 0.9 | 3.5 | 0.00 | 0.19 | 0.04 | 96 | 1001.9 |
| 20260509121809 | 53 | 200 | 0.9 | 3.5 | 0.00 | 0.19 | 0.04 | 96 | 1001.9 |
| 20260509121032 | 53 | 174 | 0.9 | 3.5 | 0.00 | 0.19 | 0.04 | 96 | 1001.9 |
| 20260509120755 | 52 | 200 | 0.9 | 2.6 | 0.00 | 0.19 | 0.04 | 96 | 1001.9 |
| 20260509120018 | 52 | 152 | 0.0 | 1.7 | 0.00 | 0.20 | 0.04 | 96 | 1002.0 |
| 20260509115512 | 52 | 143 | 0.9 | 4.3 | 0.00 | 0.20 | 0.04 | 96 | 1001.9 |
| 20260509115007 | 52 | 163 | 0.0 | 4.3 | 0.00 | 0.20 | 0.04 | 96 | 1002.0 |
| 20260509114502 | 52 | 129 | 0.0 | 4.3 | 0.00 | 0.20 | 0.04 | 96 | 1001.9 |
| 20260509114001 | 52 | 103 | 0.0 | 0.9 | 0.00 | 0.20 | 0.04 | 96 | 1001.8 |
| 20260509113954 | 52 | 165 | 0.0 | 4.3 | 0.00 | 0.20 | 0.04 | 96 | 1001.9 |
| 20260509112951 | 52 | 217 | 0.0 | 2.6 | 0.00 | 0.20 | 0.04 | 96 | 1001.9 |
| 20260509112723 | 52 | 183 | 0.0 | 2.6 | 0.00 | 0.20 | 0.04 | 96 | 1001.8 |
| 20260509111949 | 52 | 189 | 0.0 | 0.9 | 0.00 | 0.20 | 0.04 | 96 | 1001.8 |
| 20260509111446 | 52 | 213 | 0.0 | 2.6 | 0.00 | 0.20 | 0.04 | 96 | 1001.8 |
| 20260509110946 | 52 | 215 | 0.0 | 2.6 | 0.00 | 0.20 | 0.04 | 96 | 1001.8 |
| 20260509110718 | 52 | 104 | 0.0 | 0.9 | 0.00 | 0.20 | 0.04 | 96 | 1001.8 |
| 20260509105945 | 52 | 159 | 0.0 | 0.9 | 0.00 | 0.20 | 0.04 | 96 | 1001.6 |
| 20260509105717 | 51 | 159 | 0.0 | 2.6 | 0.00 | 0.20 | 0.04 | 96 | 1001.7 |
| 20260509104943 | 51 | 159 | 0.0 | 2.6 | 0.00 | 0.20 | 0.04 | 96 | 1001.7 |
| 20260509104712 | 51 | 146 | 0.0 | 2.6 | 0.00 | 0.20 | 0.04 | 96 | 1001.6 |